Overview Statistics Trail Chart Weather Telemetry Raw packets
 

This is the latest recevied weather packets stored in our database for station/object IU5GBO-13. If no packets are shown the sender has not sent any weather packets the latest 10 day(s).

<< 49 50 51 52 53 54 55 >>
Time Temp. Humidity Pressure Rain* Wind** Luminosity Snow
1777303611 22.22° C 46% 1018.4 hPa - - - -
1777303011 22.22° C 45% 1018.3 hPa - - - -
1777302411 22.22° C 45% 1018.4 hPa - - - -
1777301810 22.78° C 43% 1018.4 hPa - - - -
1777301211 22.78° C 42% 1018.5 hPa - - - -
1777300611 22.78° C 41% 1018.7 hPa - - - -
1777300011 22.78° C 40% 1018.5 hPa - - - -
1777299411 23.33° C 40% 1018.6 hPa - - - -
1777298811 23.33° C 42% 1018.7 hPa - - - -
1777298210 23.33° C 43% 1018.8 hPa - - - -
1777297611 23.33° C 42% 1019 hPa - - - -
1777297011 23.89° C 41% 1019.1 hPa - - - -
1777296411 23.89° C 41% 1019.1 hPa - - - -
1777295811 23.33° C 43% 1019.2 hPa - - - -
1777295211 23.33° C 43% 1019.3 hPa - - - -
1777294611 23.33° C 42% 1019.5 hPa - - - -
1777294011 23.33° C 40% 1019.5 hPa - - - -
1777293411 23.33° C 40% 1019.6 hPa - - - -
1777292811 23.33° C 39% 1019.6 hPa - - - -
1777292210 23.33° C 40% 1019.8 hPa - - - -
1777291610 23.33° C 43% 1019.8 hPa - - - -
1777289252 23.89° C 41% 1020 hPa - - - -
1777288652 23.33° C 40% 1020 hPa - - - -
1777288052 23.89° C 40% 1020.2 hPa - - - -
1777287452 23.33° C 41% 1020.4 hPa - - - -

* Rain since midnight (hover to see other rain measurements)
** Current wind speed in m/s (hover to see current wind gust speed)